Location: Marcé
(47.5801°N, 0.3280°W)
Time: 01:25:42
(UTC+01:00)

Tiros 1 - Pass Details

Date: 07 December 2021
Orbit: 629 x 664 km, 48.4° (Epoch: 26 January)

Event Time Altitude Azimuth Distance (km) Brightness Sun altitude
Rises 21:02:55 0° 272° (W) 2,928 11.5 -38.2°
Reaches altitude 10° 21:05:14 10° 273° (W) 2,024 10.4 -38.6°
Enters shadow 21:05:52 14° 274° (W) 1,782 10.0 -38.7°
